Skip Page Navigation
NASA JPL Caltech
NASA Logo - Jet Propulsion Laboratory + View the NASA Portal
+ Center for Near-Earth Object Studies
JPL Home Earth Solar System Stars & Galaxies Technology
JPL Solar System Dynamics
BODIES ORBITS EPHEMERIDES TOOLS PHYSICAL DATA DISCOVERY FAQ SITE MAP
JPL Small-Body Database Browser
Search: [ help ]  
541592 (2011 UP15)
Classification: Inner Main-belt Asteroid          SPK-ID: 2541592
Ephemeris | Orbit Diagram | Orbital Elements | Mission Design | Physical Parameters | Discovery Circumstances ]

[ show orbit diagram ]
Orbital Elements at Epoch 2459200.5 (2020-Dec-17.0) TDB
Reference: JPL 18 (heliocentric ecliptic J2000)
 Element Value Uncertainty (1-sigma)   Units 
e .03062587424203119 1.497e-07  
a 1.889225721972563 1.7356e-08 au
q 1.831366532596621 2.8091e-07 au
i 24.25037886808323 9.6502e-06 deg
node 4.700577677805805 1.5961e-05 deg
peri 350.5897134517743 0.00013619 deg
M 200.1254778286565 0.00014135 deg
tp 2459621.712218258519
(2022-Feb-11.21221826)
0.00037235 TDB
period 948.4713168402942
2.60
1.307e-05
3.578e-08
d
yr
n .3795581306552233 5.2304e-09 deg/d
Q 1.947084911348505 1.7887e-08 au
  Orbit Determination Parameters
   # obs. used (total)      117  
   data-arc span      5371 days (14.70 yr)  
   first obs. used      2005-03-13  
   last obs. used      2019-11-26  
   planetary ephem.      DE441  
   SB-pert. ephem.      SB441-N16  
   condition code      0  
   norm. resid. RMS      .52363  
   source      ORB  
   producer      Otto Matic  
   solution date      2021-Apr-14 20:23:47  

Additional Information
 Earth MOID = .828309 au 
 Jupiter MOID = 3.12438 au 
 T_jup = 3.852 
[ show covariance matrix ]

Ephemeris | Orbit Diagram | Orbital Elements | Mission Design | Physical Parameters | Discovery Circumstances ]

Physical Parameter Table
Parameter Symbol Value Units Sigma Reference Notes
absolute magnitude H 18.0   n/a MPO446916  

541592 (2011 UP15)          Discovered 2005-Mar-13 by Cernis, K., Zdanavicius, J. at Moletai
Reference: Last Updated: 2019-12-13
Ephemeris | Orbit Diagram | Orbital Elements | Mission Design | Physical Parameters | Discovery Circumstances ]
ABOUT SSD CREDITS/AWARDS PRIVACY/COPYRIGHT GLOSSARY LINKS
FirstGov 2021-Jun-23 00:47 UT
(server date/time)  
NASA Home Page
Site Manager:   Ryan S. Park
Webmaster  Alan B. Chamberlin